TimeCDT,TemperatureF,Dew PointF,Humidity,Sea Level PressureIn,VisibilityMPH,Wind Direction,Wind SpeedMPH,Gust SpeedMPH,PrecipitationIn,Events,Conditions,WindDirDegrees,DateUTC
12:53 AM,44.1,39.9,85,29.68,10.0,West,3.5,-,N/A,,Overcast,280,2012-10-20 05:53:00
1:53 AM,43.0,39.9,89,29.69,10.0,WNW,4.6,-,N/A,,Scattered Clouds,300,2012-10-20 06:53:00
2:53 AM,41.0,37.9,89,29.71,10.0,WNW,5.8,-,N/A,,Partly Cloudy,300,2012-10-20 07:53:00
3:53 AM,39.9,37.9,93,29.71,10.0,WNW,5.8,-,N/A,,Clear,290,2012-10-20 08:53:00
4:53 AM,39.9,37.0,89,29.73,10.0,WNW,5.8,-,N/A,,Clear,290,2012-10-20 09:53:00
5:53 AM,39.0,36.0,89,29.75,10.0,North,4.6,-,N/A,,Clear,10,2012-10-20 10:53:00
6:53 AM,37.0,35.1,93,29.77,10.0,West,3.5,-,N/A,,Partly Cloudy,270,2012-10-20 11:53:00
7:53 AM,39.0,36.0,89,29.78,10.0,WNW,3.5,-,N/A,,Partly Cloudy,300,2012-10-20 12:53:00
8:53 AM,43.0,37.9,82,29.81,10.0,NNW,3.5,-,N/A,,Partly Cloudy,340,2012-10-20 13:53:00
9:53 AM,48.0,39.9,74,29.81,10.0,Variable,6.9,-,N/A,,Partly Cloudy,0,2012-10-20 14:53:00
10:53 AM,50.0,39.9,68,29.82,10.0,NW,8.1,-,N/A,,Partly Cloudy,310,2012-10-20 15:53:00
11:53 AM,53.1,39.9,61,29.82,10.0,NW,9.2,-,N/A,,Partly Cloudy,320,2012-10-20 16:53:00
12:53 PM,54.0,39.9,59,29.82,10.0,NW,9.2,-,N/A,,Scattered Clouds,310,2012-10-20 17:53:00
1:53 PM,55.9,39.0,53,29.80,10.0,WNW,6.9,-,N/A,,Scattered Clouds,300,2012-10-20 18:53:00
2:53 PM,57.0,39.0,51,29.81,10.0,NW,8.1,-,N/A,,Partly Cloudy,320,2012-10-20 19:53:00
3:53 PM,57.0,37.9,49,29.82,10.0,WNW,6.9,-,N/A,,Scattered Clouds,300,2012-10-20 20:53:00
4:53 PM,57.9,37.9,47,29.83,10.0,NW,4.6,-,N/A,,Mostly Cloudy,320,2012-10-20 21:53:00
5:53 PM,54.0,37.9,55,29.84,10.0,Calm,Calm,-,N/A,,Partly Cloudy,0,2012-10-20 22:53:00
6:53 PM,46.9,39.0,74,29.86,10.0,Calm,Calm,-,N/A,,Partly Cloudy,0,2012-10-20 23:53:00
7:53 PM,44.1,37.9,79,29.87,10.0,Calm,Calm,-,N/A,,Partly Cloudy,0,2012-10-21 00:53:00
8:53 PM,42.1,36.0,79,29.88,10.0,Calm,Calm,-,N/A,,Clear,0,2012-10-21 01:53:00
9:53 PM,41.0,36.0,82,29.90,10.0,Calm,Calm,-,N/A,,Clear,0,2012-10-21 02:53:00
10:53 PM,41.0,35.1,79,29.93,10.0,Calm,Calm,-,N/A,,Clear,0,2012-10-21 03:53:00
11:53 PM,37.9,35.1,89,29.94,10.0,Calm,Calm,-,N/A,,Clear,0,2012-10-21 04:53:00